DECAYED

STARLINK-1803, 46703 (Decayed)

Orbit data source: Space-Track

STARLINK-1803, 46703 was a payload satellite owned by SpaceX/Seattle (US) in LEO that was launched on Sun, 18 Oct 2020 UTC via an FALCON 9 launch vehicle from the Air Force Eastern Test Range (AFETR). Payload-class satellites include a variety of spacecraft equipped with specific instruments for various scientific and technological missions. These include communications satellites like Starlink; space stations such as the ISS; scientific satellites like the Hubble; Earth observation satellites from companies like Planet Labs, Umbra, and HawkEye 360; GPS; miniature CubeSats for education and research; and military/defense satellites.

Not visible in the next 10 days
Identifier
46703, 2020-073AK
Orbit
Decayed
Country
Flag of USUS
Related business
Manufacturer
SpaceX/Seattle
Mission
Decayed Commercial Communications
Bus & Motor
STARLINK, Unknown motor
Mass
260 kg wet, ~248 kg dry
Launch date (UTC)
2020-10-18 (6 years ago)
Launch vehicle
FALCON 9
Launch site
Air Force Eastern Test Range (AFETR)
Object type
Payload
Rocket body
Debris
Shape & HBR
Box + 1 Pan, 10.1 m
Radar Cross Section
13.562 m², Large (>1 m²)

Expand to show TLE details & history
Last TLE update: 1 year ago

TLE from 1 year ago
0 STARLINK-1803
1 46703U 20073AK  25114.51047817  .11573923  12387-4  10505-2 0  9997
2 46703  53.0191 176.0121 0006667 313.3970 185.9973 16.38094899250310
Epoch: 2025-04-24T12:15Z
TLE epoch observation values (Epoch: 2025-04-24T12:15:05.313Z)
Latitude
31.43633°
Longitude
-67.77725°
Altitude
177.139 km
Speed
7.802 km/s
True Right ascension
21h 55m 06s
True Declination
31° 16' 12"
Sunlit
Object was in daylight at epoch
Visualization orbit readout
Latitude
Unknown
Longitude
Unknown
Altitude
Unknown
Speed
Unknown
Apparent Right ascension
Unknown
Apparent Declination
Unknown
Sunlit
N/A
Visualization observer readout
Local Sidereal Time
06:17:57
Azimuth
Unknown
Elevation
Unknown
Doppler factor
Unknown
Orbital elements
Apogee altitude
175.533 km
Perigee altitude
166.801 km
Semi-major axis
6,549.304 km
Eccentricity
0.00067
Inclination
53.0191°
RAAN
176.0121°
Arg. of periapsis
313.397°
True anomaly
185.98932°
Mean anomaly
185.9973°
Eccentric anomaly
185.99331°
Mean motion
4.09497 °/min
Orbital period
87.91 mins
BSTAR
0.0010505
Loading maneuver chart data...
Computing Atmospheric mass density...
Loading historical data...
Loading historical data...
Loading historical data...
Loading historical data...
Loading historical data...
Loading historical data...
Loading historical data...

Documentation

Showing up to 5 results
|